Location: Bartshausen
(51.8454°N, 9.8167°E)
Time: 08:58:35
(UTC+00:00)

CZ-2D R/B - Pass Details

Date: 08 November 2025
Orbit: 788 x 842 km, 98.9° (Epoch: 11 December)

Event Time Altitude Azimuth Distance (km) Brightness Sun altitude
Rises 03:10:35 0° 10° (N) 3,344 5.6 -30.5°
Reaches altitude 10° 03:13:06 10° 2° (N) 2,400 4.7 -30.1°
Enters shadow 03:14:21 17° 355° (N) 1,974 4.1 -29.9°
